星链-5783 (STARLINK-5783 )

导读 | 星芒AI

STARLINK-5783 是 SpaceX 星链计划中的一颗低轨通信卫星,属于第 57 批部署的星链卫星群。该卫星于 2023 年发射,运行在约 550 公里的轨道高度,旨在为全球用户提供高速互联网服务。星链项目通过大规模部署卫星,构建覆盖全球的宽带网络,尤其服务于传统网络难以覆盖的偏远地区。STARLINK-5783 与其他星链卫星协同工作,提升网络容量与连接稳定性,推动全球互联网普及。

基本信息
目录编号:
56022
目录名称:
STARLINK-5783
国际标识:
2023-042AN
轨道中心:
EARTH
卫星名称:
星链-5783
卫星全名:
星链-5783 (STARLINK-5783 )
卫星状态:
在轨 (已飞行1003 天)
发射日期:
2023-03-24 UTC
国别 :
美国 (US)
星等 :
--
轨道信息
数据来源 国际轨道数据 AOE轨道数据
星历时间 2025-12-20T17:47:16+0800
1天前
查看轨道信息
2025-12-20T09:00:00+0800
1天前
查看轨道信息
半长轴 6937.22km 6937.21km
偏心率 0.0001296 0.000001
轨道倾角 43.003° 43.003°
近地点辐角 268.535° 189.856°
升交点赤经 113.949° 115.943°
平近点角 91.534° 347.339°
近地点 558.183km 559.066km
远地点 559.983km 559.08km
周期 95.838分钟 95.838分钟
每日圈数 15.025349 15.025382
详细信息
固有亮度:
5
最大亮度:
2.5
卫星平台:
Starlink v1.5
覆盖范围:
全球
运营商:
太空探索技术公司
运营商所在国:
美国
制造商(研发单位):
太空探索技术公司
制造商所在国:
美国
使用方式:
暂无
卫星简介
星链(Starlink)计划是由太空探索技术公司(SpaceX)提出的一个巨型低轨卫星互联网星座项目,计划在2019年至2024年间在太空搭建由约1.2万颗卫星组成的“星链”网络,其中1584颗将部署在地球上空550千米处的近地轨道,并从2020年开始工作。该卫星仍在工作。
2D轨道图
3D轨道图
轨道高度分析图
轨道倾角分析图
轨道综合分析图
查看轨道综合分析图